Flag for U.S.A. Weather past 2 weeks in Macon, Georgia, U.S.A.

Now
87 °F

Broken clouds.


Feels Like: 90 °F
Forecast: 66 / 87 °F
Wind: No wind

Location: Middle Georgia Regional Airport

Current Time: Sep 17, 2014 at 4:18:13 PM

Latest Report: Sep 17, 2014 at 3:53 PM


Visibility: 10 mi

Pressure: 29.86 "Hg

Humidity: 51%

Dew point: 67 °F

Location of MaconLocation

Historic Weather in Macon — Graph

°F

Macon temperature yesterday

Maximum temperature yesterday: 89 °F (at 4:53 PM)
Minimum temperature yesterday: 70 °F (at 4:01 AM)
Average temperature yesterday: 77 °F

Past Weeks' High & Low Weather Summary

 TemperatureHumidityPressure
High95 °F (Sep 2, 3:53 PM)100% (Sep 3, 12:53 AM)30.19 "Hg (Sep 3, 12:53 AM)
Low67 °F (Sep 17, 6:53 AM)41% (Sep 12, 4:53 PM)29.88 "Hg (Sep 17, 2:53 PM)
Average77 °F85%30.04 "Hg
* Reported Sep 2 2:53 PM — Sep 17 2:53 PM, Macon, Weather by CustomWeather, © 2014

Note: Actual official high and low records may vary slightly from our data, if they occured in-between our weather recording intervals... More about our weather records

Advertising

Macon weather history for previous 24 hours

 ConditionsComfort  
Time TempWeatherWind HumidityBarometerVisibility
2:53 PM
Sep 17
87 °FPartly sunny.5 mph50%29.88 "Hg10 mi
1:53 PM86 °FScattered clouds.3 mph51%29.90 "Hg10 mi
12:53 PM86 °FScattered clouds.7 mph55%29.92 "Hg10 mi
11:53 AM83 °FSunny.7 mph59%29.93 "Hg10 mi
10:53 AM82 °FSunny.6 mph60%29.94 "Hg10 mi
9:53 AM79 °FSunny.6 mph74%29.95 "Hg10 mi
8:53 AM75 °FSunny.3 mph88%29.95 "Hg8 mi
7:53 AM69 °FFog.No wind100%29.94 "Hg6 mi
6:53 AM67 °FFog.3 mph100%29.92 "Hg3 mi
5:53 AM68 °FFog.No wind100%29.92 "Hg5 mi
4:53 AM68 °FClear.No wind100%29.91 "Hg7 mi
3:53 AM68 °FClear.No wind100%29.92 "Hg10 mi
2:53 AM69 °FClear.3 mph96%29.93 "Hg10 mi
1:53 AM70 °FClear.5 mph97%29.95 "Hg10 mi
12:53 AM71 °FClear.5 mph90%29.95 "Hg10 mi
11:53 PM
Sep 16
72 °FClear.No wind93%29.97 "Hg10 mi
10:53 PM74 °FPassing clouds.6 mph88%29.96 "Hg10 mi
9:53 PM73 °FPassing clouds.5 mph100%29.97 "Hg7 mi
8:53 PM74 °FClear.No wind97%29.95 "Hg8 mi
7:53 PM79 °FSunny.No wind79%29.94 "Hg10 mi
6:53 PM84 °FSunny.7 mph63%29.94 "Hg10 mi
5:53 PM89 °FSunny.9 mph52%29.93 "Hg10 mi
4:53 PM89 °FBroken clouds.8 mph50%29.92 "Hg10 mi
Weather by CustomWeather, © 2014

See weather overviewHow to use our weather pages